Weather History for Madisonville, KY

Change the Weather History Date:

Thursday, November 7, 2013

  Actual Average (KOWB) Record (KOWB)
Temperature  
Mean Temperature 44 °F -  
Max Temperature 53 °F 58 °F 80 °F (1980)
Min Temperature 36 °F 38 °F 20 °F (1993)
Degree Days  
Heating Degree Days 20    
Moisture  
Dew Point 34 °F    
Average Humidity 74    
Maximum Humidity 99    
Minimum Humidity 35    
Precipitation  
Precipitation 0.00 in - - ()
Sea Level Pressure  
Sea Level Pressure 30.31 in    
Wind  
Wind Speed 6 mph (NW)    
Max Wind Speed 10 mph    
Max Gust Speed -    
Visibility 10 miles    
Events      
Averages and records for this station are not official NWS values.
T = Trace of Precipitation, MM = Missing Value Source: NWS Daily Summary

Daily Weather History Graph

Daily Weather History Graph

Search for Another Location

Airport:

Trip Planner

Search our weather history database for the weather conditions in past years. The results will help you decide how hot, cold, wet, or windy it might be!

Date:

Astronomy

Nov. 07, 2013 Rise Set
Actual Time 6:20 AM CST 4:45 PM CST
Civil Twilight 5:53 AM CST 5:12 PM CST
Nautical Twilight 5:22 AM CST 5:43 PM CST
Astronomical Twilight 4:51 AM CST 6:14 PM CST
Moon 10:27 AM CST (11/7) 8:57 PM CST (11/7)
Length of Visible Light 11h 19m
Length of Day
10h 24m
Waxing Crescent, 23% of the Moon is Illuminated
Nov 7
Waxing Crescent
Nov 9
First Quarter
Nov 17
Full
Nov 25
Last Quarter
Dec 2
New

Hourly Weather History & Observations

Time (CST) Temp. Windchill Dew Point Humidity Pressure Visibility Wind Dir Wind Speed Gust Speed Precip Events Conditions
12:15 AM 45.0 °F 40.6 °F 43.7 °F 95% 30.21 in 10.0 mi NNW 8.1 mph - N/A   Overcast
12:35 AM 44.6 °F 40.7 °F 43.5 °F 96% 30.21 in 10.0 mi NNW 6.9 mph - N/A   Overcast
12:55 AM 43.9 °F 39.3 °F 42.8 °F 96% 30.22 in 10.0 mi NNW 8.1 mph - N/A   Scattered Clouds
1:15 AM 43.5 °F 39.4 °F 42.3 °F 95% 30.22 in 10.0 mi NNW 6.9 mph - N/A   Clear
1:55 AM 43.3 °F 39.9 °F 42.4 °F 97% 30.22 in 10.0 mi NNW 5.8 mph - N/A   Overcast
2:15 AM 43.7 °F 39.1 °F 42.4 °F 95% 30.23 in 10.0 mi NW 8.1 mph - N/A   Overcast
2:35 AM 42.8 °F 37.5 °F 41.7 °F 96% 30.23 in 10.0 mi NW 9.2 mph - N/A   Mostly Cloudy
2:55 AM 41.9 °F 38.2 °F 41.0 °F 97% 30.24 in 10.0 mi NW 5.8 mph - N/A   Scattered Clouds
3:15 AM 41.4 °F 36.8 °F 40.6 °F 97% 30.24 in 10.0 mi NNW 6.9 mph - N/A   Clear
3:35 AM 41.0 °F 36.4 °F 40.1 °F 97% 30.24 in 10.0 mi NW 6.9 mph - N/A   Clear
3:55 AM 40.6 °F 36.0 °F 39.7 °F 97% 30.26 in 10.0 mi NW 6.9 mph - N/A   Clear
4:15 AM 40.3 °F 37.1 °F 39.6 °F 97% 30.26 in 10.0 mi NNW 4.6 mph - N/A   Clear
4:35 AM 39.4 °F 37.2 °F 38.8 °F 98% 30.26 in 10.0 mi NW 3.5 mph - N/A   Clear
4:55 AM 39.2 °F 35.9 °F 38.5 °F 97% 30.27 in 10.0 mi NW 4.6 mph - N/A   Clear
5:15 AM 38.7 °F 35.2 °F 38.3 °F 99% 30.28 in 10.0 mi NW 4.6 mph - N/A   Clear
5:35 AM 38.3 °F 34.8 °F 37.8 °F 98% 30.29 in 10.0 mi NW 4.6 mph - N/A   Clear
5:55 AM 38.3 °F 33.2 °F 37.6 °F 97% 30.30 in 10.0 mi NW 6.9 mph - N/A   Clear
6:15 AM 37.9 °F 33.5 °F 37.0 °F 97% 30.31 in 10.0 mi NW 5.8 mph - N/A   Clear
6:35 AM 37.6 °F 32.3 °F 36.9 °F 97% 30.33 in 10.0 mi NW 6.9 mph - N/A   Clear
6:55 AM 38.3 °F 33.2 °F 37.0 °F 95% 30.34 in 10.0 mi NW 6.9 mph - N/A   Clear
7:15 AM 38.7 °F 35.2 °F 37.4 °F 95% 30.35 in 10.0 mi NNW 4.6 mph - N/A   Clear
7:35 AM 39.6 °F 34.0 °F 37.4 °F 92% 30.36 in 10.0 mi North 8.1 mph - N/A   Clear
7:55 AM 40.8 °F 35.6 °F 36.9 °F 86% 30.37 in 10.0 mi North 8.1 mph - N/A   Clear
8:15 AM 41.9 °F 38.2 °F 35.6 °F 78% 30.37 in 10.0 mi North 5.8 mph - N/A   Clear
8:35 AM 42.8 °F 39.3 °F 34.7 °F 73% 30.37 in 10.0 mi North 5.8 mph - N/A   Clear
8:55 AM 43.5 °F 38.9 °F 34.3 °F 70% 30.38 in 10.0 mi North 8.1 mph - N/A   Clear
9:15 AM 44.6 °F 40.2 °F 35.6 °F 71% 30.37 in 10.0 mi NNE 8.1 mph - N/A   Clear
9:35 AM 45.5 °F 40.3 °F 34.3 °F 65% 30.37 in 10.0 mi NNE 10.4 mph - N/A   Clear
9:55 AM 46.0 °F 41.9 °F 32.9 °F 60% 30.38 in 10.0 mi NNE 8.1 mph - N/A   Clear
10:15 AM 46.8 °F - 33.3 °F 59% 30.37 in 10.0 mi NE 8.1 mph - N/A   Clear
10:35 AM 48.0 °F - 32.5 °F 55% 30.37 in 10.0 mi North 5.8 mph - N/A   Clear
10:55 AM 48.6 °F - 32.9 °F 55% 30.36 in 10.0 mi North 9.2 mph - N/A   Clear
11:15 AM 49.1 °F - 32.0 °F 52% 30.36 in 10.0 mi North 10.4 mph - N/A   Clear
11:35 AM 50.2 °F - 31.8 °F 49% 30.36 in 10.0 mi NNW 8.1 mph - N/A   Clear
11:55 AM 50.9 °F - 30.6 °F 46% 30.35 in 10.0 mi NNE 4.6 mph - N/A   Clear
12:15 PM 51.3 °F - 30.6 °F 45% 30.35 in 10.0 mi Calm Calm - N/A   Clear
12:35 PM 52.0 °F - 28.6 °F 41% 30.34 in 7.0 mi NNW 4.6 mph - N/A   Clear
12:55 PM 52.0 °F - 27.0 °F 38% 30.33 in 10.0 mi West 4.6 mph - N/A   Clear
1:15 PM 52.3 °F - 28.4 °F 40% 30.33 in 10.0 mi NNW 3.5 mph - N/A   Clear
1:35 PM 52.7 °F - 27.3 °F 38% 30.32 in 10.0 mi WNW 9.2 mph - N/A   Clear
1:55 PM 52.9 °F - 26.6 °F 36% 30.31 in 10.0 mi North 8.1 mph - N/A   Clear
2:15 PM 52.9 °F - 26.8 °F 36% 30.31 in 10.0 mi North 6.9 mph - N/A   Clear
2:35 PM 53.1 °F - 26.1 °F 35% 30.31 in 10.0 mi Calm Calm - N/A   Clear
2:55 PM 53.4 °F - 28.9 °F 39% 30.30 in 10.0 mi West 6.9 mph - N/A   Clear
3:15 PM 52.9 °F - 28.2 °F 39% 30.31 in 10.0 mi West 4.6 mph - N/A   Clear
3:35 PM 52.7 °F - 27.9 °F 38% 30.31 in 10.0 mi WNW 8.1 mph - N/A   Clear
3:55 PM 52.2 °F - 27.5 °F 39% 30.31 in 10.0 mi NW 8.1 mph - N/A   Clear
4:55 PM 48.2 °F - 27.5 °F 45% 30.30 in 10.0 mi WNW 3.5 mph - N/A   Clear
5:15 PM 47.7 °F - 27.9 °F 46% 30.30 in 10.0 mi Calm Calm - N/A   Clear
5:35 PM 43.9 °F - 31.1 °F 61% 30.31 in 10.0 mi Calm Calm - N/A   Clear
5:55 PM 43.3 °F - 32.0 °F 64% 30.31 in 10.0 mi Calm Calm - N/A   Clear
6:15 PM 41.9 °F - 32.0 °F 68% 30.32 in 10.0 mi Calm Calm - N/A   Clear
6:35 PM 41.2 °F - 31.1 °F 67% 30.32 in 10.0 mi Calm Calm - N/A   Clear
6:55 PM 40.3 °F - 31.1 °F 70% 30.32 in 10.0 mi Calm Calm - N/A   Clear
7:15 PM 40.3 °F - 32.0 °F 72% 30.32 in 10.0 mi Calm Calm - N/A   Clear
7:35 PM 39.0 °F - 32.0 °F 76% 30.33 in 10.0 mi Calm Calm - N/A   Clear
7:55 PM 37.8 °F 35.3 °F 33.8 °F 86% 30.33 in 10.0 mi SW 3.5 mph - N/A   Clear
8:15 PM 37.9 °F - 33.8 °F 85% 30.33 in 10.0 mi Calm Calm - N/A   Clear
8:35 PM 36.7 °F - 33.4 °F 88% 30.33 in 10.0 mi Calm Calm - N/A   Clear
8:55 PM 36.7 °F - 34.2 °F 91% 30.33 in 10.0 mi Calm Calm - N/A   Clear
9:15 PM 37.4 °F 34.9 °F 34.2 °F 88% 30.34 in 10.0 mi SW 3.5 mph - N/A   Clear
9:35 PM 37.2 °F 33.6 °F 34.0 °F 88% 30.34 in 10.0 mi SW 4.6 mph - N/A   Clear
9:55 PM 37.0 °F 33.3 °F 33.3 °F 86% 30.34 in 10.0 mi WSW 4.6 mph - N/A   Clear
10:15 PM 36.7 °F 34.1 °F 33.8 °F 89% 30.33 in 10.0 mi West 3.5 mph - N/A   Clear
10:35 PM 36.0 °F 32.1 °F 33.3 °F 90% 30.33 in 10.0 mi WSW 4.6 mph - N/A   Clear
10:55 PM 37.6 °F 33.1 °F 32.4 °F 81% 30.33 in 10.0 mi West 5.8 mph - N/A   Clear
11:15 PM 39.0 °F 34.8 °F 32.2 °F 76% 30.33 in 10.0 mi West 5.8 mph - N/A   Clear
11:35 PM 38.5 °F 36.1 °F 32.2 °F 78% 30.34 in 10.0 mi WNW 3.5 mph - N/A   Clear
11:55 PM 37.8 °F - 32.0 °F 80% 30.34 in 10.0 mi Calm Calm - N/A   Clear